{"data":{"norad_id":59895,"intl_designator":"2024-100L","name":"STARLINK-31964","alt_names":[],"object_type":"PAYLOAD","status":"ACTIVE","operator":null,"country":"US","launch_date":"2024-05-28","launch_site_code":"AFETR","launch_vehicle":null,"mission":null,"orbit_class":"UNKNOWN","rcs_meters":null,"size_class":null,"mass_kg":null,"dimensions":null,"purposes":["comms"],"wikipedia_slug":null,"has_3d_model":false,"image_url":null,"decayed_at":null,"tle_current":{"epoch":"2026-05-25T00:20:12.734592Z","epoch_age_seconds":73942,"freshness":"FRESH","line1":"1 59895U 24100L   26145.01403628 -.00004139  00000+0 -14104-3 0  9996","line2":"2 59895  43.0034  54.0142 0001504 260.9961  99.0720 15.27565335112789","mean_motion":15.27565335,"eccentricity":0.0001504,"inclination_deg":43.0034,"raan_deg":54.0142,"arg_perigee_deg":260.9961,"mean_anomaly_deg":99.072,"bstar":-0.00014104,"rev_number":11278,"period_min":94.267653697444,"perigee_km":482.06107968336,"apogee_km":484.12493766997,"semimajor_km":6861.2300086767,"source":"CELESTRAK","updated_at":"2026-05-25T13:38:19.118013Z"}}}